Simultaneous Nadir Overpasses (SNOs) Predictions

Prediction of SNOs between METOP-C and LANDSAT-8 Satellite Orbit:

Table of predicted SNOs for the next 14.0 days since TLE Epoch: 7/30/2022
Index Date (METOP-C) Time (METOP-C) Lat,Lon (METOP-C) SZA (METOP-C ) Date (LANDSAT-8) Time (LANDSAT-8) Lat,Lon (LANDSAT-8) SZA (LANDSAT-8 ) Distance(km) Time Diff (sec)
1 07/31/2022 19:16:14 81.19, -67.97 65.15 07/31/2022 19:16:20 81.19, -67.97 65.15 0.06 6
2 07/31/2022 20:06:53 -81.21, 100.09 114.76 07/31/2022 20:05:46 -81.21, 99.98 114.80 1.92 67
3 08/03/2022 14:00:39 -80.33, 175.54 116.23 08/03/2022 14:01:53 -79.96, 176.93 116.43 49.23 74
4 08/03/2022 14:50:35 81.19, -1.43 65.89 08/03/2022 14:50:37 81.18, -1.61 65.86 3.31 2
5 08/03/2022 15:41:15 -81.20, 166.22 114.07 08/03/2022 15:40:03 -81.20, 166.36 114.08 2.39 72
6 08/06/2022 09:34:16 -81.17,-102.93 113.44 08/06/2022 09:35:27 -81.17,-103.01 113.42 1.36 71
7 08/06/2022 10:24:55 81.19, 65.09 66.66 08/06/2022 10:24:52 81.20, 65.06 66.66 0.57 3
8 08/09/2022 05:08:38 -81.16, -36.85 112.68 08/09/2022 05:09:44 -81.16, -36.74 112.64 1.95 66
9 08/09/2022 05:59:17 81.19, 131.19 67.42 08/09/2022 05:59:09 81.18, 131.30 67.43 1.81 8
10 08/12/2022 00:42:58 -81.18, 29.96 111.80 08/12/2022 00:44:00 -81.17, 29.84 111.79 2.11 62



Historial Predications of SNOs between METOP-C and LANDSAT-8
